| time (UTC) | temp F | wind direction | speed MPH | gust MPH | rain 1hr in | rain 24hr in | rain mn in | humidity % | barometer mb |
| 20260506022736 | 67 | 262 | 9.0 | 10.0 | 0.00 | 0.00 | 0.00 | 75 | 1016.5 |
| 20260506022235 | 67 | 190 | 6.0 | 8.0 | 0.00 | 0.00 | 0.00 | 74 | 1016.5 |
| 20260506021733 | 67 | 312 | 5.0 | 8.0 | 0.00 | 0.00 | 0.00 | 74 | 1016.2 |
| 20260506021229 | 67 | 270 | 3.0 | 6.0 | 0.00 | 0.00 | 0.00 | 74 | 1016.3 |
| 20260506020726 | 67 | 317 | 5.0 | 9.0 | 0.00 | 0.00 | 0.00 | 73 | 1016.5 |
| 20260506020224 | 67 | 237 | 4.0 | 13.0 | 0.00 | 0.00 | 0.00 | 73 | 1015.9 |
| 20260506015721 | 67 | 292 | 4.0 | 8.0 | 0.00 | 0.00 | 0.00 | 73 | 1016.0 |
| 20260506015219 | 67 | 268 | 4.0 | 6.0 | 0.00 | 0.00 | 0.00 | 73 | 1015.9 |
| 20260506014716 | 68 | 254 | 2.0 | 6.0 | 0.00 | 0.00 | 0.00 | 72 | 1015.9 |
| 20260506014211 | 68 | 253 | 5.0 | 8.0 | 0.00 | 0.00 | 0.00 | 72 | 1016.0 |
| 20260506013709 | 68 | 269 | 3.0 | 6.0 | 0.00 | 0.00 | 0.00 | 71 | 1015.8 |
| 20260506013206 | 68 | 285 | 3.0 | 7.0 | 0.00 | 0.00 | 0.00 | 70 | 1015.7 |
| 20260506012702 | 68 | 146 | 2.0 | 7.0 | 0.00 | 0.00 | 0.00 | 70 | 1015.7 |
| 20260506012159 | 69 | 169 | 3.0 | 7.0 | 0.00 | 0.00 | 0.00 | 70 | 1015.6 |
| 20260506011657 | 69 | 254 | 5.0 | 9.0 | 0.00 | 0.00 | 0.00 | 69 | 1015.7 |
| 20260506011153 | 69 | 282 | 5.0 | 8.0 | 0.00 | 0.00 | 0.00 | 68 | 1015.8 |
| 20260506010652 | 69 | 261 | 6.0 | 8.0 | 0.00 | 0.00 | 0.00 | 67 | 1015.5 |
| 20260506010148 | 70 | 276 | 8.0 | 10.0 | 0.00 | 0.00 | 0.00 | 67 | 1015.7 |
| 20260506005645 | 70 | 323 | 5.0 | 11.0 | 0.00 | 0.00 | 0.00 | 66 | 1015.4 |
| 20260506005142 | 70 | 262 | 7.0 | 13.0 | 0.00 | 0.00 | 0.00 | 66 | 1015.1 |
| 20260506004638 | 70 | 232 | 5.0 | 15.0 | 0.00 | 0.00 | 0.00 | 66 | 1015.2 |
| 20260506004136 | 70 | 303 | 7.0 | 9.0 | 0.00 | 0.00 | 0.00 | 66 | 1015.3 |
| 20260506003632 | 71 | 250 | 8.0 | 14.0 | 0.00 | 0.00 | 0.00 | 65 | 1015.1 |
| 20260506003128 | 71 | 282 | 5.0 | 9.0 | 0.00 | 0.00 | 0.00 | 64 | 1014.9 |
| 20260506002624 | 71 | 331 | 5.0 | 14.0 | 0.00 | 0.00 | 0.00 | 64 | 1015.0 |
| 20260506002120 | 71 | 195 | 3.0 | 8.0 | 0.00 | 0.00 | 0.00 | 64 | 1015.0 |
| 20260506001616 | 72 | 271 | 9.0 | 14.0 | 0.00 | 0.00 | 0.00 | 63 | 1014.9 |
| 20260506001113 | 72 | 266 | 3.0 | 7.0 | 0.00 | 0.00 | 0.00 | 64 | 1014.8 |
| 20260506000611 | 72 | 316 | 5.0 | 9.0 | 0.00 | 0.00 | 0.00 | 63 | 1014.8 |
| 20260506000108 | 73 | 268 | 6.0 | 10.0 | 0.00 | 0.00 | 0.00 | 62 | 1014.7 |
| 20260505235606 | 73 | 236 | 3.0 | 7.0 | 0.00 | 0.00 | 0.00 | 62 | 1014.8 |
| 20260505235103 | 73 | 242 | 4.0 | 7.0 | 0.00 | 0.00 | 0.00 | 62 | 1014.8 |
| 20260505234600 | 73 | 280 | 6.0 | 11.0 | 0.00 | 0.00 | 0.00 | 61 | 1014.8 |
| 20260505234056 | 74 | 244 | 5.0 | 8.0 | 0.00 | 0.00 | 0.00 | 60 | 1014.6 |
| 20260505233554 | 74 | 249 | 4.0 | 6.0 | 0.00 | 0.00 | 0.00 | 59 | 1014.7 |
| 20260505233046 | 74 | 321 | 5.0 | 8.0 | 0.00 | 0.00 | 0.00 | 59 | 1014.8 |
| 20260505232543 | 75 | 259 | 5.0 | 8.0 | 0.00 | 0.00 | 0.00 | 58 | 1014.6 |
| 20260505232041 | 75 | 296 | 4.0 | 10.0 | 0.00 | 0.00 | 0.00 | 57 | 1014.5 |
| 20260505231537 | 75 | 261 | 8.0 | 13.0 | 0.00 | 0.00 | 0.00 | 56 | 1014.7 |
| 20260505231036 | 76 | 271 | 7.0 | 8.0 | 0.00 | 0.00 | 0.00 | 55 | 1014.4 |
| 20260505230533 | 76 | 296 | 8.0 | 13.0 | 0.00 | 0.00 | 0.00 | 55 | 1014.3 |
| 20260505230030 | 76 | 306 | 7.0 | 10.0 | 0.00 | 0.00 | 0.00 | 54 | 1014.7 |
| 20260505225527 | 76 | 236 | 5.0 | 10.0 | 0.00 | 0.00 | 0.00 | 54 | 1014.6 |
| 20260505225023 | 77 | 276 | 2.0 | 8.0 | 0.00 | 0.00 | 0.00 | 54 | 1014.6 |
| 20260505224520 | 76 | 249 | 3.0 | 8.0 | 0.00 | 0.00 | 0.00 | 55 | 1014.7 |
| 20260505224017 | 77 | 321 | 4.0 | 9.0 | 0.00 | 0.00 | 0.00 | 53 | 1014.8 |
| 20260505223514 | 78 | 278 | 4.0 | 10.0 | 0.00 | 0.00 | 0.00 | 53 | 1014.6 |
| 20260505223010 | 77 | 220 | 3.0 | 7.0 | 0.00 | 0.00 | 0.00 | 52 | 1014.7 |
| 20260505222507 | 77 | 270 | 4.0 | 8.0 | 0.00 | 0.00 | 0.00 | 52 | 1014.7 |
| 20260505222002 | 77 | 218 | 7.0 | 9.0 | 0.00 | 0.00 | 0.00 | 52 | 1014.6 |
| 20260505221500 | 78 | 263 | 4.0 | 9.0 | 0.00 | 0.00 | 0.00 | 51 | 1014.6 |
| 20260505220957 | 78 | 343 | 5.0 | 9.0 | 0.00 | 0.00 | 0.00 | 50 | 1014.5 |
| 20260505220454 | 77 | 258 | 1.0 | 5.0 | 0.00 | 0.00 | 0.00 | 52 | 1014.8 |
| 20260505215951 | 78 | 302 | 5.0 | 7.0 | 0.00 | 0.00 | 0.00 | 50 | 1014.6 |
| 20260505215449 | 78 | 260 | 5.0 | 6.0 | 0.00 | 0.00 | 0.00 | 49 | 1014.7 |
| 20260505214947 | 78 | 207 | 3.0 | 9.0 | 0.00 | 0.00 | 0.00 | 49 | 1015.0 |
| 20260505214445 | 79 | 294 | 3.0 | 10.0 | 0.00 | 0.00 | 0.00 | 48 | 1014.9 |
| 20260505213941 | 78 | 279 | 5.0 | 10.0 | 0.00 | 0.00 | 0.00 | 47 | 1014.7 |
| 20260505213439 | 79 | 294 | 6.0 | 9.0 | 0.00 | 0.00 | 0.00 | 47 | 1014.8 |
| 20260505212935 | 79 | 324 | 4.0 | 7.0 | 0.00 | 0.00 | 0.00 | 47 | 1014.8 |
| 20260505212432 | 79 | 296 | 5.0 | 9.0 | 0.00 | 0.00 | 0.00 | 48 | 1014.9 |
| 20260505211928 | 79 | 300 | 4.0 | 10.0 | 0.00 | 0.00 | 0.00 | 48 | 1014.9 |
| 20260505211426 | 79 | 182 | 4.0 | 10.0 | 0.00 | 0.00 | 0.00 | 46 | 1014.9 |
| 20260505210922 | 80 | 298 | 6.0 | 10.0 | 0.00 | 0.00 | 0.00 | 46 | 1014.9 |
| 20260505210420 | 80 | 291 | 3.0 | 10.0 | 0.00 | 0.00 | 0.00 | 47 | 1014.9 |
| 20260505205916 | 79 | 276 | 7.0 | 10.0 | 0.00 | 0.00 | 0.00 | 47 | 1014.9 |
| 20260505205415 | 79 | 270 | 7.0 | 14.0 | 0.00 | 0.00 | 0.00 | 49 | 1014.8 |
| 20260505204911 | 79 | 244 | 7.0 | 10.0 | 0.00 | 0.00 | 0.00 | 48 | 1015.1 |
| 20260505204409 | 78 | 278 | 3.0 | 10.0 | 0.00 | 0.00 | 0.00 | 48 | 1014.9 |
| 20260505203906 | 79 | 339 | 3.0 | 5.0 | 0.00 | 0.00 | 0.00 | 47 | 1014.9 |
| 20260505203402 | 80 | 234 | 5.0 | 11.0 | 0.00 | 0.00 | 0.00 | 47 | 1015.0 |
| 20260505202859 | 80 | 335 | 7.0 | 10.0 | 0.00 | 0.00 | 0.00 | 47 | 1015.1 |
| 20260505202355 | 80 | 342 | 5.0 | 9.0 | 0.00 | 0.00 | 0.00 | 46 | 1015.0 |
| 20260505201852 | 80 | 319 | 5.0 | 10.0 | 0.00 | 0.00 | 0.00 | 44 | 1014.9 |
| 20260505201349 | 79 | 230 | 7.0 | 23.0 | 0.00 | 0.00 | 0.00 | 47 | 1015.1 |
| 20260505200847 | 79 | 269 | 7.0 | 11.0 | 0.00 | 0.00 | 0.00 | 45 | 1015.0 |
| 20260505200344 | 79 | 300 | 2.0 | 6.0 | 0.00 | 0.00 | 0.00 | 48 | 1015.1 |
| 20260505195839 | 80 | 256 | 7.0 | 10.0 | 0.00 | 0.00 | 0.00 | 46 | 1015.3 |
| 20260505195337 | 80 | 258 | 3.0 | 7.0 | 0.00 | 0.00 | 0.00 | 46 | 1015.1 |
| 20260505194834 | 80 | 219 | 5.0 | 7.0 | 0.00 | 0.00 | 0.00 | 46 | 1015.0 |
| 20260505194331 | 80 | 73 | 5.0 | 7.0 | 0.00 | 0.00 | 0.00 | 45 | 1015.6 |
| 20260505193826 | 80 | 30 | 3.0 | 15.0 | 0.00 | 0.00 | 0.00 | 45 | 1015.6 |
| 20260505193324 | 79 | 310 | 5.0 | 8.0 | 0.00 | 0.00 | 0.00 | 47 | 1015.9 |
| 20260505192822 | 80 | 301 | 6.0 | 10.0 | 0.00 | 0.00 | 0.00 | 46 | 1015.9 |
| 20260505192320 | 80 | 247 | 3.0 | 14.0 | 0.00 | 0.00 | 0.00 | 46 | 1015.9 |
| 20260505191817 | 78 | 275 | 5.0 | 7.0 | 0.00 | 0.00 | 0.00 | 48 | 1015.8 |
| 20260505191316 | 81 | 324 | 9.0 | 11.0 | 0.00 | 0.00 | 0.00 | 46 | 1016.0 |
| 20260505190812 | 80 | 337 | 5.0 | 9.0 | 0.00 | 0.00 | 0.00 | 46 | 1015.9 |
| 20260505190308 | 80 | 4 | 2.0 | 10.0 | 0.00 | 0.00 | 0.00 | 47 | 1016.2 |
| 20260505185804 | 79 | 258 | 9.0 | 10.0 | 0.00 | 0.00 | 0.00 | 47 | 1016.2 |
| 20260505185300 | 79 | 221 | 3.0 | 7.0 | 0.00 | 0.00 | 0.00 | 49 | 1016.1 |
| 20260505184756 | 78 | 258 | 6.0 | 9.0 | 0.00 | 0.00 | 0.00 | 48 | 1016.2 |
| 20260505184254 | 78 | 247 | 6.0 | 10.0 | 0.00 | 0.00 | 0.00 | 48 | 1016.2 |
| 20260505183751 | 78 | 227 | 6.0 | 10.0 | 0.00 | 0.00 | 0.00 | 48 | 1016.4 |
| 20260505183248 | 79 | 318 | 2.0 | 7.0 | 0.00 | 0.00 | 0.00 | 49 | 1016.5 |
| 20260505182744 | 79 | 294 | 7.0 | 8.0 | 0.00 | 0.00 | 0.00 | 46 | 1016.4 |
| 20260505182241 | 79 | 296 | 8.0 | 13.0 | 0.00 | 0.00 | 0.00 | 47 | 1016.5 |
| 20260505181737 | 78 | 272 | 3.0 | 7.0 | 0.00 | 0.00 | 0.00 | 49 | 1016.4 |
| 20260505181235 | 79 | 321 | 5.0 | 7.0 | 0.00 | 0.00 | 0.00 | 47 | 1016.5 |
| 20260505180731 | 78 | 280 | 5.0 | 7.0 | 0.00 | 0.00 | 0.00 | 47 | 1016.5 |
| 20260505180228 | 78 | 184 | 6.0 | 11.0 | 0.00 | 0.00 | 0.00 | 48 | 1016.4 |
| 20260505175724 | 78 | 281 | 7.0 | 11.0 | 0.00 | 0.00 | 0.00 | 48 | 1016.6 |
| 20260505175221 | 79 | 45 | 3.0 | 6.0 | 0.00 | 0.00 | 0.00 | 48 | 1016.6 |
| 20260505174717 | 78 | 275 | 3.0 | 7.0 | 0.00 | 0.00 | 0.00 | 49 | 1016.9 |
| 20260505174214 | 78 | 236 | 6.0 | 6.0 | 0.00 | 0.00 | 0.00 | 49 | 1016.6 |
| 20260505173710 | 78 | 53 | 5.0 | 8.0 | 0.00 | 0.00 | 0.00 | 48 | 1016.6 |
| 20260505173207 | 78 | 245 | 5.0 | 7.0 | 0.00 | 0.00 | 0.00 | 48 | 1016.7 |
| 20260505172704 | 78 | 291 | 6.0 | 11.0 | 0.00 | 0.00 | 0.00 | 49 | 1016.8 |
| 20260505172201 | 78 | 277 | 8.0 | 11.0 | 0.00 | 0.00 | 0.00 | 48 | 1016.8 |
| 20260505171701 | 78 | 239 | 10.0 | 13.0 | 0.00 | 0.00 | 0.00 | 49 | 1016.8 |
| 20260505171158 | 77 | 301 | 3.0 | 9.0 | 0.00 | 0.00 | 0.00 | 52 | 1016.7 |
| 20260505170655 | 77 | 255 | 7.0 | 14.0 | 0.00 | 0.00 | 0.00 | 52 | 1016.9 |
| 20260505170152 | 77 | 357 | 5.0 | 8.0 | 0.00 | 0.00 | 0.00 | 51 | 1017.0 |
| 20260505165652 | 77 | 11 | 4.0 | 8.0 | 0.00 | 0.00 | 0.00 | 51 | 1017.1 |
| 20260505165148 | 76 | 270 | 7.0 | 9.0 | 0.00 | 0.00 | 0.00 | 52 | 1017.0 |
| 20260505164644 | 77 | 293 | 7.0 | 10.0 | 0.00 | 0.00 | 0.00 | 53 | 1017.2 |
| 20260505164142 | 77 | 335 | 5.0 | 10.0 | 0.00 | 0.00 | 0.00 | 53 | 1017.1 |
| 20260505163640 | 77 | 297 | 7.0 | 14.0 | 0.00 | 0.00 | 0.00 | 54 | 1017.3 |
| 20260505163137 | 77 | 0 | 8.0 | 10.0 | 0.00 | 0.00 | 0.00 | 55 | 1017.6 |
| 20260505162634 | 76 | 263 | 8.0 | 9.0 | 0.00 | 0.00 | 0.00 | 54 | 1017.4 |
| 20260505162132 | 76 | 317 | 5.0 | 15.0 | 0.00 | 0.00 | 0.00 | 53 | 1017.5 |
| 20260505161629 | 75 | 327 | 4.0 | 7.0 | 0.00 | 0.00 | 0.00 | 55 | 1017.4 |
| 20260505161126 | 75 | 333 | 7.0 | 10.0 | 0.00 | 0.00 | 0.00 | 54 | 1017.7 |
| 20260505160624 | 75 | 132 | 4.0 | 7.0 | 0.00 | 0.00 | 0.00 | 54 | 1017.5 |
| 20260505160121 | 75 | 284 | 7.0 | 10.0 | 0.00 | 0.00 | 0.00 | 57 | 1017.7 |
| 20260505153101 | 75 | 258 | 7.0 | 9.0 | 0.00 | 0.00 | 0.00 | 58 | 1017.9 |
| 20260505152557 | 74 | 346 | 7.0 | 8.0 | 0.00 | 0.00 | 0.00 | 59 | 1017.8 |
| 20260505152053 | 74 | 291 | 6.0 | 8.0 | 0.00 | 0.00 | 0.00 | 59 | 1017.9 |
| 20260505151548 | 73 | 293 | 2.0 | 6.0 | 0.00 | 0.00 | 0.00 | 61 | 1018.0 |
| 20260505151046 | 73 | 318 | 7.0 | 9.0 | 0.00 | 0.00 | 0.00 | 60 | 1017.9 |
| 20260505150542 | 73 | 284 | 3.0 | 7.0 | 0.00 | 0.00 | 0.00 | 62 | 1018.0 |
| 20260505140507 | 69 | 31 | 5.0 | 10.0 | 0.00 | 0.00 | 0.00 | 68 | 1018.1 |
| 20260505124920 | 63 | 97 | 3.0 | 5.0 | 0.00 | 0.00 | 0.00 | 78 | 1017.9 |
| 20260505124417 | 63 | 349 | 4.0 | 8.0 | 0.00 | 0.00 | 0.00 | 79 | 1017.8 |
| 20260505123914 | 62 | 93 | 1.0 | 6.0 | 0.00 | 0.00 | 0.00 | 79 | 1018.0 |
| 20260505123410 | 62 | 154 | 2.0 | 5.0 | 0.00 | 0.00 | 0.00 | 79 | 1017.7 |
| 20260505122906 | 61 | 220 | 4.0 | 5.0 | 0.00 | 0.00 | 0.00 | 80 | 1017.8 |
| 20260505122404 | 60 | 182 | 2.0 | 7.0 | 0.00 | 0.00 | 0.00 | 82 | 1017.9 |
| 20260505121900 | 60 | 231 | 3.0 | 6.0 | 0.00 | 0.00 | 0.00 | 82 | 1017.7 |
| 20260505121357 | 59 | 277 | 3.0 | 6.0 | 0.00 | 0.00 | 0.00 | 83 | 1017.8 |
| 20260505120853 | 59 | 279 | 4.0 | 5.0 | 0.00 | 0.00 | 0.00 | 83 | 1017.9 |
| 20260505120349 | 59 | 190 | 2.0 | 3.0 | 0.00 | 0.00 | 0.00 | 83 | 1017.9 |
| 20260505115848 | 58 | 139 | 0.0 | 3.0 | 0.00 | 0.00 | 0.00 | 84 | 1017.9 |
| 20260505115345 | 58 | 78 | 1.0 | 3.0 | 0.00 | 0.00 | 0.00 | 84 | 1017.9 |
| 20260505114843 | 57 | 143 | 0.0 | 2.0 | 0.00 | 0.00 | 0.00 | 86 | 1017.8 |
| 20260505114340 | 56 | 296 | 0.0 | 1.0 | 0.00 | 0.00 | 0.00 | 88 | 1017.6 |
| 20260505113836 | 55 | 244 | 1.0 | 3.0 | 0.00 | 0.00 | 0.00 | 89 | 1017.5 |
| 20260505113333 | 54 | 146 | 0.0 | 0.0 | 0.00 | 0.00 | 0.00 | 92 | 1017.7 |
| 20260505112828 | 53 | 155 | 1.0 | 1.0 | 0.00 | 0.00 | 0.00 | 94 | 1017.7 |
| 20260505112326 | 52 | 146 | 0.0 | 1.0 | 0.00 | 0.00 | 0.00 | 95 | 1017.5 |
| 20260505111821 | 51 | 136 | 0.0 | 2.0 | 0.00 | 0.00 | 0.00 | 95 | 1017.4 |
| 20260505111317 | 51 | 154 | 0.0 | 1.0 | 0.00 | 0.00 | 0.00 | 95 | 1017.3 |
| 20260505110813 | 50 | 152 | 1.0 | 1.0 | 0.00 | 0.00 | 0.00 | 95 | 1017.3 |
| 20260505110311 | 49 | 127 | 0.0 | 0.0 | 0.00 | 0.00 | 0.00 | 95 | 1017.4 |
| 20260505101745 | 48 | 133 | 0.0 | 0.0 | 0.00 | 0.00 | 0.00 | 95 | 1016.6 |
| 20260505101241 | 48 | 131 | 0.0 | 0.0 | 0.00 | 0.00 | 0.00 | 95 | 1016.7 |
| 20260505100738 | 48 | 135 | 0.0 | 0.0 | 0.00 | 0.00 | 0.00 | 95 | 1016.8 |
| 20260505100234 | 48 | 135 | 0.0 | 0.0 | 0.00 | 0.00 | 0.00 | 95 | 1016.4 |
| 20260505095729 | 49 | 135 | 0.0 | 0.0 | 0.00 | 0.00 | 0.00 | 95 | 1016.4 |
| 20260505095228 | 48 | 133 | 0.0 | 0.0 | 0.00 | 0.00 | 0.00 | 95 | 1016.6 |
| 20260505094723 | 49 | 133 | 0.0 | 0.0 | 0.00 | 0.00 | 0.00 | 95 | 1016.5 |
| 20260505094220 | 49 | 133 | 0.0 | 0.0 | 0.00 | 0.00 | 0.00 | 95 | 1016.5 |
| 20260505093716 | 49 | 133 | 0.0 | 0.0 | 0.00 | 0.00 | 0.00 | 95 | 1016.3 |
| 20260505093214 | 49 | 131 | 0.0 | 0.0 | 0.00 | 0.00 | 0.00 | 95 | 1016.6 |
| 20260505092710 | 50 | 131 | 0.0 | 0.0 | 0.00 | 0.00 | 0.00 | 95 | 1016.6 |
| 20260505092209 | 50 | 135 | 0.0 | 0.0 | 0.00 | 0.00 | 0.00 | 95 | 1016.2 |
| 20260505091706 | 50 | 135 | 0.0 | 0.0 | 0.00 | 0.00 | 0.00 | 95 | 1016.4 |
| 20260505091204 | 50 | 135 | 0.0 | 0.0 | 0.00 | 0.00 | 0.00 | 95 | 1016.4 |
| 20260505090701 | 50 | 135 | 0.0 | 0.0 | 0.00 | 0.00 | 0.00 | 95 | 1016.3 |
| 20260505090159 | 51 | 135 | 0.0 | 0.0 | 0.00 | 0.00 | 0.00 | 95 | 1016.0 |
| 20260505085656 | 51 | 135 | 0.0 | 0.0 | 0.00 | 0.00 | 0.00 | 95 | 1016.2 |
| 20260505085154 | 51 | 131 | 0.0 | 0.0 | 0.00 | 0.00 | 0.00 | 95 | 1016.3 |
| 20260505084651 | 51 | 128 | 0.0 | 0.0 | 0.00 | 0.00 | 0.00 | 95 | 1016.0 |
| 20260505084150 | 50 | 131 | 0.0 | 0.0 | 0.00 | 0.00 | 0.00 | 94 | 1016.2 |
| 20260505083647 | 50 | 133 | 0.0 | 0.0 | 0.00 | 0.00 | 0.00 | 94 | 1016.2 |
| 20260505083144 | 51 | 131 | 0.0 | 0.0 | 0.00 | 0.00 | 0.00 | 93 | 1016.2 |
| 20260505082639 | 51 | 131 | 0.0 | 0.0 | 0.00 | 0.00 | 0.00 | 93 | 1016.2 |
| 20260505082137 | 51 | 130 | 0.0 | 0.0 | 0.00 | 0.00 | 0.00 | 93 | 1016.0 |
| 20260505081632 | 52 | 135 | 0.0 | 0.0 | 0.00 | 0.00 | 0.00 | 92 | 1016.0 |
| 20260505081131 | 52 | 136 | 0.0 | 0.0 | 0.00 | 0.00 | 0.00 | 92 | 1015.9 |
| 20260505080627 | 52 | 131 | 0.0 | 0.0 | 0.00 | 0.00 | 0.00 | 92 | 1016.2 |
| 20260505080123 | 52 | 131 | 0.0 | 0.0 | 0.00 | 0.00 | 0.00 | 92 | 1016.1 |
| 20260505075620 | 53 | 130 | 0.0 | 0.0 | 0.00 | 0.00 | 0.00 | 91 | 1016.1 |
| 20260505075116 | 53 | 142 | 0.0 | 0.0 | 0.00 | 0.00 | 0.00 | 91 | 1016.0 |
| 20260505074613 | 53 | 136 | 0.0 | 0.0 | 0.00 | 0.00 | 0.00 | 90 | 1016.1 |
| 20260505074110 | 53 | 137 | 0.0 | 0.0 | 0.00 | 0.00 | 0.00 | 90 | 1015.8 |
| 20260505073608 | 52 | 137 | 0.0 | 0.0 | 0.00 | 0.00 | 0.00 | 89 | 1016.0 |
| 20260505073106 | 52 | 131 | 0.0 | 0.0 | 0.00 | 0.00 | 0.00 | 87 | 1015.9 |
| 20260505072601 | 53 | 131 | 0.0 | 0.0 | 0.00 | 0.00 | 0.00 | 86 | 1016.0 |
| 20260505072058 | 54 | 133 | 0.0 | 0.0 | 0.00 | 0.00 | 0.00 | 86 | 1015.9 |
| 20260505071553 | 54 | 134 | 0.0 | 0.0 | 0.00 | 0.00 | 0.00 | 85 | 1015.9 |
| 20260505071052 | 55 | 127 | 0.0 | 0.0 | 0.00 | 0.00 | 0.00 | 83 | 1016.1 |
| 20260505070548 | 55 | 131 | 0.0 | 0.0 | 0.00 | 0.00 | 0.00 | 82 | 1016.0 |
| 20260505070044 | 56 | 132 | 0.0 | 0.0 | 0.00 | 0.00 | 0.00 | 80 | 1016.0 |
| 20260505065540 | 57 | 137 | 0.0 | 1.0 | 0.00 | 0.00 | 0.00 | 80 | 1016.0 |
| 20260505065037 | 57 | 137 | 0.0 | 1.0 | 0.00 | 0.00 | 0.00 | 79 | 1015.8 |
| 20260505064534 | 57 | 264 | 2.0 | 2.0 | 0.00 | 0.00 | 0.00 | 79 | 1016.0 |
| 20260505064033 | 57 | 158 | 1.0 | 2.0 | 0.00 | 0.00 | 0.00 | 78 | 1015.7 |
| 20260505063530 | 58 | 143 | 1.0 | 1.0 | 0.00 | 0.00 | 0.00 | 77 | 1015.7 |
| 20260505063025 | 58 | 194 | 1.0 | 2.0 | 0.00 | 0.00 | 0.00 | 77 | 1015.9 |
| 20260505062522 | 58 | 233 | 3.0 | 3.0 | 0.00 | 0.00 | 0.00 | 76 | 1015.7 |
| 20260505062020 | 58 | 153 | 1.0 | 3.0 | 0.00 | 0.00 | 0.00 | 76 | 1015.9 |
| 20260505061517 | 59 | 211 | 3.0 | 3.0 | 0.00 | 0.00 | 0.00 | 75 | 1016.2 |
| 20260505061015 | 59 | 138 | 2.0 | 2.0 | 0.00 | 0.00 | 0.00 | 75 | 1016.0 |
| 20260505060512 | 59 | 236 | 2.0 | 3.0 | 0.00 | 0.00 | 0.00 | 75 | 1016.3 |
| 20260505060009 | 59 | 223 | 3.0 | 3.0 | 0.00 | 0.00 | 0.00 | 74 | 1016.1 |
| 20260505055504 | 59 | 133 | 2.0 | 3.0 | 0.00 | 0.00 | 0.00 | 74 | 1016.3 |
| 20260505055001 | 59 | 180 | 1.0 | 2.0 | 0.00 | 0.00 | 0.00 | 74 | 1016.2 |
| 20260505054458 | 59 | 220 | 2.0 | 2.0 | 0.00 | 0.00 | 0.00 | 75 | 1016.5 |
| 20260505053956 | 59 | 195 | 2.0 | 2.0 | 0.00 | 0.00 | 0.00 | 74 | 1016.2 |
| 20260505053453 | 59 | 41 | 1.0 | 2.0 | 0.00 | 0.00 | 0.00 | 73 | 1016.1 |
| 20260505052950 | 59 | 153 | 0.0 | 1.0 | 0.00 | 0.00 | 0.00 | 73 | 1016.2 |
| 20260505052447 | 60 | 150 | 1.0 | 3.0 | 0.00 | 0.00 | 0.00 | 73 | 1016.3 |
| 20260505051944 | 60 | 152 | 1.0 | 2.0 | 0.00 | 0.00 | 0.00 | 73 | 1016.4 |
| 20260505051441 | 60 | 181 | 1.0 | 2.0 | 0.00 | 0.00 | 0.00 | 72 | 1016.4 |
| 20260505050939 | 60 | 149 | 1.0 | 3.0 | 0.00 | 0.00 | 0.00 | 72 | 1016.4 |
| 20260505050437 | 61 | 144 | 2.0 | 3.0 | 0.00 | 0.00 | 0.00 | 71 | 1016.6 |
| 20260505041404 | 62 | 325 | 3.0 | 5.0 | 0.00 | 0.00 | 0.00 | 68 | 1016.4 |
| 20260505040901 | 63 | 155 | 2.0 | 7.0 | 0.00 | 0.00 | 0.00 | 68 | 1016.3 |
| 20260505040359 | 63 | 273 | 3.0 | 6.0 | 0.00 | 0.00 | 0.00 | 68 | 1016.5 |
| 20260505035855 | 63 | 118 | 2.0 | 5.0 | 0.00 | 0.00 | 0.00 | 67 | 1016.7 |
| 20260505035351 | 63 | 65 | 3.0 | 7.0 | 0.00 | 0.00 | 0.00 | 67 | 1016.5 |
| 20260505034849 | 63 | 255 | 2.0 | 6.0 | 0.00 | 0.00 | 0.00 | 67 | 1016.4 |
| 20260505034345 | 64 | 307 | 3.0 | 5.0 | 0.00 | 0.00 | 0.00 | 66 | 1016.5 |
| 20260505033843 | 64 | 267 | 5.0 | 8.0 | 0.00 | 0.00 | 0.00 | 66 | 1016.5 |
| 20260505033339 | 64 | 259 | 3.0 | 6.0 | 0.00 | 0.00 | 0.00 | 65 | 1016.3 |
| 20260505032838 | 64 | 338 | 2.0 | 7.0 | 0.00 | 0.00 | 0.00 | 66 | 1016.4 |
| 20260505032334 | 64 | 307 | 4.0 | 7.0 | 0.00 | 0.00 | 0.00 | 66 | 1016.3 |
| 20260505031831 | 64 | 251 | 4.0 | 6.0 | 0.00 | 0.00 | 0.00 | 65 | 1016.6 |
| 20260505031327 | 64 | 332 | 6.0 | 8.0 | 0.00 | 0.00 | 0.00 | 65 | 1016.7 |
| 20260505030825 | 64 | 221 | 1.0 | 6.0 | 0.00 | 0.00 | 0.00 | 65 | 1016.7 |
| 20260505030321 | 64 | 79 | 3.0 | 5.0 | 0.00 | 0.00 | 0.00 | 66 | 1016.8 |
| 20260505025816 | 64 | 289 | 2.0 | 5.0 | 0.00 | 0.00 | 0.00 | 65 | 1016.7 |
| 20260505025314 | 65 | 259 | 5.0 | 6.0 | 0.00 | 0.00 | 0.00 | 65 | 1016.3 |
| 20260505024812 | 65 | 296 | 4.0 | 10.0 | 0.00 | 0.00 | 0.00 | 65 | 1016.5 |
| 20260505024310 | 65 | 297 | 4.0 | 9.0 | 0.00 | 0.00 | 0.00 | 64 | 1016.3 |
| 20260505023807 | 65 | 276 | 4.0 | 8.0 | 0.00 | 0.00 | 0.00 | 64 | 1016.5 |
| 20260505023304 | 65 | 160 | 2.0 | 8.0 | 0.00 | 0.00 | 0.00 | 64 | 1016.4 |